Location: Cardiff
(53.7833°N, 113.6000°W)
Time: 16:29:33
(UTC+00:00)

RS-15 - Pass Details

Date: 04 December 2023
Orbit: 1893 x 2151 km, 64.8° (Epoch: 27 February)

Event Time Altitude Azimuth Distance (km) Brightness Sun altitude
Exits shadow 11:44:24 39° 318° (NW) 2,760 8.5 -32.5°
Maximum altitude 11:49:49 84° 43° (NE) 1,981 7.9 -31.7°
Drops below altitude 10° 12:00:55 10° 133° (SE) 4,303 10.3 -30.0°
Sets 12:04:06 0° 134° (SE) 5,283 10.9 -29.6°
